Location: Igri�s
(42.2144°N, 0.4320°W)
Time: 12:42:33
(UTC+00:00)

Daily predictions for brighter satellites

Satellite Brightness Start Highest point End
(mag) Time Altitude Azimuth Time Altitude Azimuth Time Altitude Azimuth
Cosmos 1833 Rocket 2.7 19:28:42 10° SSW 19:34:17 74° ESE 19:39:55 10° NNE
NOSS 3-2 (A) 3.9 19:29:30 10° S 19:34:24 33° ESE 19:39:50 10° NE
Cosmos 1862 3.3 19:32:08 10° S 19:36:09 70° E 19:40:12 10° NNE
SJ-6B 3.0 19:32:36 10° SSE 19:36:32 55° ENE 19:40:26 10° N
Sich 1 3.4 19:33:19 10° SSE 19:37:30 44° E 19:41:45 10° NNE
Meteor 1-4 Rocket 4.1 19:36:18 10° NNE 19:38:47 18° ENE 19:41:14 10° ESE
Cosmos 1697 Rocket 2.8 19:33:35 10° NNW 19:39:09 61° ENE 19:44:41 10° SE
CZ-2C R/B 4.0 19:35:29 10° S 19:40:05 46° W 19:44:39 10° NNW
H-2A R/B 2.7 19:35:36 10° S 19:40:38 57° W 19:45:34 10° NNW
USA 267 4.0 19:37:15 10° ENE 19:42:42 28° SE 19:48:07 10° S
NOSS 3-2 (C) 4.3 19:39:38 10° SSE 19:43:56 23° ESE 19:48:34 10° ENE
Cosmos 389 Rocket 2.4 19:44:13 10° N 19:47:41 85° E 19:51:10 10° S
Cosmos 1812 2.7 19:45:35 10° N 19:49:25 67° E 19:53:13 10° SSE
Cosmos 1727 Rocket 4.2 19:43:44 10° N 19:50:07 80° W 19:56:27 10° S
Resurs 01 Rocket 2.7 19:47:50 10° SE 19:51:37 29° ENE 19:55:26 10° N
IRS-1A Rocket 4.4 19:47:05 10° SSE 19:52:45 84° WSW 19:58:35 10° NNW
Cosmos 676 Rocket 4.4 19:51:20 10° S 19:56:20 44° ESE 20:01:24 10° NNE
MONITOR-E 3.4 19:56:59 11° SSE 19:59:09 61° ENE 20:01:29 10° N
Meteor 1-27 Rocket 3.9 19:55:27 10° N 20:01:22 66° ENE 20:07:16 10° SSE
Cosmos 1441 Rocket 3.6 19:57:40 10° SSW 20:01:26 67° WNW 20:05:10 10° N
GP-B 4.4 19:59:05 10° NNE 20:02:33 22° E 20:04:54 15° ESE
IRIDIUM 104 4.4 19:58:43 10° S 20:03:55 89° W 20:09:10 10° N
SPOT 3 Rocket 3.6 20:02:11 10° SSE 20:07:19 63° ENE 20:12:27 10° N
BREEZE-M DEB (TANK) 4.4 20:06:22 10° WNW 20:09:16 21° NNW 20:11:01 10° NE
Cosmos 1867 3.6 20:03:58 10° SSW 20:09:24 88° SE 20:14:54 10° NNE
DMSP B5D2-2 4.2 20:05:35 10° NNE 20:10:50 85° WNW 20:16:06 10° SSW
Cosmos 1821 Rocket 4.0 20:05:01 10° S 20:11:09 87° W 20:17:26 10° N
Cosmos 1666 Rocket 3.4 20:08:03 10° S 20:12:20 71° E 20:16:40 10° NNE
FREGAT/IRIS 4.2 20:11:28 10° SSW 20:13:49 29° W 20:16:12 10° NNW
SL-4 R/B 3.7 20:10:21 10° W 20:14:02 32° NNW 20:17:29 10° NE
ATLAS 3B R/B 4.1 20:14:38 14° ESE 20:14:38 14° ESE 20:17:35 10° ENE
Resurs 1-3 3.6 20:21:03 11° SSE 20:25:19 83° WSW 20:29:45 10° NNW
Cosmos 1954 Rocket 4.0 20:20:36 10° SSW 20:25:55 80° ESE 20:31:16 10° NNE
Cosmos 2360 4.4 20:20:48 10° NNW 20:26:32 76° WSW 20:31:30 14° SSE
Spot 2 Rocket 4.3 20:25:34 21° ESE 20:28:15 35° ENE 20:32:51 10° N
SL-16 R/B 3.4 20:26:34 10° N 20:31:23 28° NE 20:34:14 19° E
CZ-2C R/B 3.5 20:28:08 10° N 20:33:08 50° WNW 20:38:10 10° SW
USA 238 DEB 3.6 20:26:38 10° SSW 20:33:13 84° SE 20:40:07 10° NE
USA 238 3.6 20:26:45 10° SSW 20:33:21 84° ESE 20:40:13 10° NE
Okean 1-7 4.5 20:32:07 10° NNE 20:35:20 20° ENE 20:35:59 19° E
Cosmos 1535 Rocket 4.4 20:30:03 10° S 20:36:11 84° E 20:42:19 10° N
Cosmos 2123 Rocket 3.9 20:31:20 10° N 20:37:35 83° E 20:43:00 14° S
Cosmos 2082 Rocket 2.8 20:32:53 10° SW 20:38:30 59° WNW 20:44:06 10° NNE
Meteor 1-25 Rocket 4.2 20:34:36 10° S 20:40:03 61° E 20:45:36 10° NNE
Cosmos 1633 Rocket 3.4 20:36:37 10° SSW 20:41:00 68° W 20:45:25 10° N
Terra 3.6 20:40:06 15° ENE 20:41:15 16° ENE 20:44:03 10° NNE
Lacrosse 5 2.6 20:38:07 10° NW 20:42:59 43° NE 20:45:36 24° E
CENTAUR R/B 2.4 20:38:10 10° SSW 20:43:49 61° ESE 20:50:29 10° NE
Cosmos 1238 Rocket 2.3 20:44:11 48° E 20:44:11 48° E 20:46:58 10° NNE
Cosmos 1605 Rocket 3.9 20:39:15 11° S 20:45:09 67° E 20:51:12 10° NNE
USA 276 4.2 20:42:53 10° NW 20:45:29 23° N 20:47:07 16° NE
Cosmos 2278 4.0 20:43:19 10° NNW 20:48:58 63° WSW 20:52:56 20° S
X-37B 1.2 20:46:22 10° WNW 20:49:28 51° N 20:50:25 35° ENE
Cosmos 2322 Rocket 3.3 20:45:11 10° N 20:50:15 31° NE 20:52:29 24° E
Cosmos 1763 Rocket 4.1 20:45:25 10° N 20:50:30 43° ENE 20:52:28 31° ESE
Cosmos 2084 Rocket 3.3 20:51:50 10° SSW 20:55:56 62° ESE 21:00:10 10° NE
OBJECT-B 3.0 20:53:23 10° SSW 20:56:05 24° W 20:58:50 10° NW
Cosmos 921 Rocket 2.8 20:52:08 10° NNW 20:56:22 85° ENE 20:57:44 42° SSE
H-2A R/B 3.3 20:54:33 10° NNE 20:58:42 90° SSW 21:01:16 23° SSW
Cosmos 2360 Rocket 3.7 20:56:18 10° N 21:00:38 22° NE 21:02:39 18° E
Cosmos 2242 Rocket 3.6 20:56:25 10° N 21:00:47 58° E 21:01:46 46° SE
Genesis I 4.4 20:57:33 10° NW 21:01:06 34° WSW 21:02:30 26° SSW
Cosmos 1602 3.6 21:03:28 50° S 21:04:24 77° E 21:08:20 10° N
Cosmos 44 4.3 21:00:31 10° NNW 21:05:03 35° NE 21:06:35 29° E
Cosmos 1470 Rocket 4.0 21:05:19 15° SSW 21:08:50 61° W 21:13:11 10° N
Cosmos 1980 Rocket 2.9 21:04:19 10° NW 21:09:44 47° WSW 21:13:02 22° S
Cosmos 405 Rocket 3.1 21:17:27 37° SW 21:18:38 57° W 21:22:20 10° N
SL-27 R/B 3.6 21:20:03 32° NNE 21:20:03 32° NNE 21:21:59 10° NNE
SPOT 5 3.0 21:19:54 44° ENE 21:20:01 45° ENE 21:24:12 10° N
Cosmos 1437 Rocket 2.7 21:21:53 10° N 21:25:21 70° NNE 21:25:21 70° NNE
USA 267 3.3 21:19:33 10° NE 21:26:07 83° NW 21:32:40 10° SW
SPOT 1/Viking Rocket 3.5 21:25:42 47° S 21:27:16 84° WSW 21:32:32 10° NNW
Resurs 01 Rocket 3.4 21:25:21 15° SW 21:28:04 27° W 21:31:50 10° NW
Landsat 7 4.1 21:27:38 42° SSW 21:29:04 62° W 21:33:48 10° NNW
Cosmos 540 Rocket 3.8 21:24:11 10° N 21:29:11 47° ENE 21:29:45 45° E
Cosmos 1515 3.8 21:28:32 10° N 21:32:00 72° NNW 21:32:00 72° NNW
Cosmos 1153 Rocket 4.4 21:29:36 29° SSW 21:32:57 82° W 21:39:10 10° N
NOSS 3-2 (C) 3.9 21:28:32 10° SW 21:34:08 59° NW 21:40:33 10° NNE
Cosmos 1850 Rocket 4.3 21:30:30 14° SSW 21:34:59 65° WNW 21:40:15 10° NNE
ERS-1 Rocket 2.8 21:36:12 66° SE 21:36:53 81° ENE 21:41:55 10° NNW
Cosmos 2061 Rocket 4.4 21:37:27 42° E 21:37:45 42° E 21:43:31 10° NNE
Cosmos 2333 Rocket 4.0 21:34:09 10° N 21:38:10 19° NE 21:39:44 17° ENE
Okean 1 4.1 21:37:34 10° NNW 21:41:28 46° W 21:41:48 45° WSW
Meteor 1-11 Rocket 4.3 21:42:34 41° E 21:42:34 41° E 21:47:34 10° NNE
Meteor 1-5 Rocket 4.3 21:42:12 58° SE 21:43:02 65° E 21:48:55 10° NNE
CARTOSAT-1 3.5 21:44:02 82° WNW 21:44:02 82° WNW 21:48:17 10° NNW
Cosmos 1802 Rocket 4.0 21:45:24 55° SE 21:46:19 60° E 21:52:33 10° NNE
Cosmos 841 Rocket 3.4 21:42:03 10° NNW 21:47:17 71° ENE 21:47:34 69° E
Okean 3 4.3 21:49:42 10° N 21:52:58 44° NNE 21:52:58 44° NNE
SL-4 R/B 4.2 21:51:40 10° NW 21:54:27 19° N 21:55:57 15° NNE
USA 234 3.4 21:58:07 46° E 22:00:03 67° NE 22:06:32 10° NW
Cosmos 1869 Rocket 3.9 22:01:00 62° WNW 22:01:00 62° WNW 22:05:14 10° N
ATLAS 3B R/B 2.4 22:01:44 44° SSW 22:04:01 83° ESE 22:10:40 10° NE
Iridium 4 Rocket 3.7 22:05:13 50° N 22:05:13 50° N 22:08:19 10° N
Meteor 2-4 Rocket 3.7 22:00:19 10° NNW 22:05:53 70° W 22:06:23 66° SW
Cosmos 1814 Rocket 4.0 22:05:49 10° NNW 22:10:48 81° NNW 22:10:48 81° NNW
Okean 1-7 4.3 22:09:06 10° NNW 22:12:51 33° W 22:12:51 33° W
Meteor 1-13 Rocket 4.1 22:09:21 10° N 22:14:45 84° NNE 22:14:45 84° NNE
SL-16 R/B 2.7 22:10:17 10° NW 22:15:42 47° WSW 22:16:06 46° WSW
Cosmos 2219 Rocket 3.4 22:11:30 10° N 22:16:29 30° NE 22:16:46 30° ENE
Terra 2.2 22:19:00 58° WNW 22:19:00 58° WNW 22:23:13 10° NNW
Cosmos 1570 Rocket 4.5 22:18:06 10° NNW 22:23:07 54° W 22:23:07 54° W
Cosmos 2322 4.2 22:18:18 10° NNW 22:23:34 47° NE 22:23:34 47° NE
Cosmos 1833 4.2 22:24:31 75° NNE 22:24:31 75° NNE 22:29:42 10° NNE
Lacrosse 5 3.1 22:21:14 10° WNW 22:24:47 33° W 22:24:47 33° W
Tsikada Rocket 4.0 22:21:59 10° N 22:28:15 70° ENE 22:28:15 70° ENE
MOS 1-B Rocket 4.0 22:25:11 10° NNE 22:29:54 59° NE 22:29:54 59° NE
Cosmos 1733 Rocket 4.4 22:34:35 35° N 22:34:35 35° N 22:37:12 10° N
Cosmos 2322 Rocket 3.0 22:29:04 10° NW 22:34:18 41° WSW 22:34:18 41° WSW
CENTAUR R/B 4.3 22:29:33 10° W 22:34:59 31° NW 22:41:16 10° NNE
Cosmos 2360 Rocket 2.6 22:39:30 10° NNW 22:44:24 58° WNW 22:44:24 58° WNW
Cosmos 1725 Rocket 4.1 22:49:23 64° W 22:49:43 65° W 22:56:01 10° N
Cosmos 968 Rocket 4.5 22:58:02 41° NNE 22:58:02 41° NNE 23:01:21 10° NNE
Cosmos 2297 Rocket 4.4 23:02:01 13° ENE 23:02:01 13° ENE 23:02:57 10° NE
Cosmos 44 Rocket 4.5 22:57:18 10° NNW 23:00:56 40° N 23:00:56 40° N
Lacrosse 4 Rocket 3.5 23:06:11 25° N 23:06:11 25° N 23:08:22 10° NNE
COSMOS 2428 3.2 22:59:04 10° NNW 23:03:51 55° NNE 23:03:51 55° NNE
Cosmos 2237 Rocket 3.5 23:09:31 10° N 23:14:16 30° NE 23:14:16 30° NE
BREEZE-M DEB (TANK) 4.1 23:07:50 10° WNW 23:18:41 69° NNW 23:18:41 69° NNW
Cosmos 2333 Rocket 2.8 23:17:20 10° NNW 23:21:43 53° NW 23:21:43 53° NW
Cosmos 1464 Rocket 4.4 23:39:31 58° NNE 23:39:31 58° NNE 23:44:30 10° N
USA 234 4.4 23:45:27 29° W 23:45:27 29° W 23:49:16 10° WNW
Cosmos 2227 Rocket 3.7 23:51:25 28° ENE 23:51:25 28° ENE 23:54:22 10° NE
Nadezhda 4 Rocket 4.4 23:46:45 10° N 23:52:00 55° NE 23:52:00 55° NE
